SCP
0 0 0 0 0 0 0 0 0 0 0 0 0 0 0 0 0 0 0 0 0 0 0 0 0 0 0 0 0 0 0 0 0 0 0 0 0 0 0 0 0 0 0 0
0 0 0 0 0 0 0 0 0 0 0 0 0 0 0 0 0 0 0 0 0 0 0 0 0 0 0 0 0 0 0 0 0 0 0 0 0 0 0 0 0 0 0 0
0 0 0 0 0 0 0 0 0 0 0 0 0 0 0 0 0 0 0 0 0 0 0 0 0 0 0 0 0 0 0 0 0 0 0 0 0 0 0 0 0 0 0 0
0 0 0 0 0 0 0 0 0 0 0 0 0 0 0 0 0 0 0 0 0 0 0 0 0 0 0 0 0 0 0 0 0 0 0 0 0 0 0 0 0 0 0 0
0 0 0 0 0 0 0 0 0 0 0 0 0 0 0 0 0 0 0 0 0 0 0 0 0 0 0 0 0 0 0 0 0 0 0 0 0 0 0 0 0 0 0 0
0 0 0 0 0 0 0 0 0 0 0 0 0 0 0 0 0 0 0 0 0 0 0 0 0 0 0 0 0 0 0 0 0 0 0 0 0 0 0 0 0 0 0 0
0 0 0 0 0 0 0 0 0 0 0 0 0 0 0 0 0 0 0 0 0 0 0 0 0 0 0 0 0 0 0 0 0 0 0 0 0 0 0 0 0 0 0 0
0 0 0 0 0 0 0 0 0 0 0 0 0 0 0 0 0 0 0 0 0 0 0 0 0 0 0 0 0 0 0 0 0 0 0 0 0 0 0 0 0 0 0 0
0 0 0 0 0 0 0 0 0 0 0 0 0 0 0 0 0 0 0 0 0 0 0 0 0 0 0 0 0 0 0 0 0 0 0 0 0 0 0 0 0 0 0 0
0 0 0 0 0 0 0 0 0 0 0 0 0 0 0 0 0 0 0 0 0 0 0 0 0 0 0 0 0 0 0 0 0 0 0 0 0 0 0 0 0 0 0 0
0 0 0 0 0 0 0 0 0 0 0 0 0 0 0 0 0 0 0 0 0 0 0 0 0 0 0 0 0 0 0 0 0 0 0 0 0 0 0 0 0 0 0 0
0 0 0 0 0 0 0 0 0 0 0 0 0 0 0 0 0 0 0 0 0 0 0 0 0 0 0 0 0 0 0 0 0 0 0 0 0 0 0 0 0 0 0 0
0 0 0 0 0 0 0 0 0 0 0 0 0 0 0 0 0 0 0 0 0 0 0 0 0 0 0 0 0 0 0 0 0 0 0 0 0 0 0 0 0 0 0 0
0 0 0 0 0 0 0 0 0 0 0 0 0 0 0 0 0 0 0 0 0 0 0 0 0 0 0 0 0 0 0 0 0 0 0 0 0 0 0 0 0 0 0 0
0 0 0 0 0 0 0 0 0 0 0 0 0 0 0 0 0 0 0 0 0 0 0 0 0 0 0 0 0 0 0 0 0 0 0 0 0 0 0 0 0 0 0 0
0 0 0 0 0 0 0 0 0 0 0 0 0 0 0 0 0 0 0 0 0 0 0 0 0 0 0 0 0 0 0 0 0 0 0 0 0 0 0 0 0 0 0 0
-0 -0 -0 0 0 0 0 0 0 0 0 0 0 0 0 0 0 0 0 0 0 0 0 0 0 0 0 0 0 0 0 0 0 0 0 0 0 0 0 0 0 0 0 0
-0 -0 -0 -0 -0 -0 0 0 0 0 0 0 0 0 0 0 0 0 0 0 0 0 0 0 0 0 0 0 0 0 0 0 0 0 0 0 0 0 0 0 0 0 0 0
-0 -0 -0 -0 -0 -0 -0 -0 0 0 0 0 0 0 0 0 0 0 0 0 0 0 0 0 0 0 0 0 0 0 0 0 0 0 0 0 0 0 0 0 0 0 0 0
0 0 0 0 0 -0 -0 -0 0 0 0 0 0 0 0 0 0 0 0 0 0 0 0 0 0 0 0 0 0 0 0 0 0 0 0 0 0 0 0 0 0 0 0 0
0 0 0 0 0 0 0 0 0 0 0 0 0 0 0 0 0 0 0 0 0 0 0 0 0 0 0 0 0 0 0 0 0 0 0 0 0 0 0 0 0 0 0 0
0 0 0 0 0 0 0 -0 0 0 0 0 0 0 0 0 0 0 0 0 0 0 0 0 0 0 0 0 0 0 0 0 0 0 0 0 0 0 0 0 0 0 0 0
0 0 0 0 0 0 0 0 0 0 0 0 0 0 0 0 0 0 0 0 0 0 0 0 0 0 0 0 0 0 0 0 0 0 0 0 0 0 0 0 0 0 0 0
0 0 0 0 0 0 0 0 0 0 0 0 0 0 0 0 0 0 0 0 0 0 0 0 0 0 0 0 0 0 0 0 0 0 0 0 0 0 0 0 0 0 0 0
0 0 0 0 0 0 0 0 0 0 0 0 0 0 0 0 0 0 0 0 0 0 0 0 0 0 0 0 0 0 0 0 0 0 0 0 0 0 0 0 0 0 0 0
0 0 0 0 0 0 0 0 0 0 0 0 0 0 0 0 0 0 0 0 0 0 0 0 0 0 0 0 0 0 0 0 0 0 0 0 0 0 0 0 0 0 0 0
0 0 0 0 0 0 0 0 0 0 0 0 0 0 0 0 0 0 0 0 0 0 0 0 0 0 0 0 0 0 0 0 0 0 0 0 0 0 0 0 0 0 0 0
Wind_Speed
11 9 7 8 9 8 10 10 10 10 10 9 7 6 5 3 2 1 1 1 2 2 1 1 1 1 1 1 2 2 2 2 3 2 2 3 3 3 3 4 4 4 5 5
8 7 7 8 9 9 11 11 12 12 11 7 6 4 3 3 2 2 2 2 2 2 1 1 1 1 1 1 1 2 2 3 2 2 3 3 3 3 3 4 4 5 5 5
7 5 6 8 6 8 6 6 6 10 9 5 5 5 4 3 3 3 4 3 2 2 2 2 2 1 1 1 1 1 2 2 2 2 3 3 3 3 4 4 4 5 5 6
5 5 9 2 2 2 5 5 4 5 6 7 7 7 5 3 3 4 4 3 3 2 2 2 2 1 1 1 1 2 2 2 2 2 2 3 3 4 4 4 4 5 5 6
4 6 7 2 1 1 5 5 2 6 8 7 7 5 2 2 3 4 4 3 3 2 2 2 2 1 1 1 2 2 2 2 2 2 3 3 3 4 4 4 4 5 5 6
4 6 6 2 4 4 3 5 3 5 6 6 4 4 3 5 5 4 4 3 3 2 2 2 1 1 2 2 2 3 3 3 2 3 3 4 4 4 4 4 4 4 5 5
6 7 5 4 5 2 3 4 6 6 6 5 4 5 7 7 6 4 4 3 2 2 1 2 1 1 2 2 3 3 2 2 3 3 3 4 4 3 3 3 4 4 5 5
4 6 4 4 2 1 4 6 6 7 6 6 6 7 7 6 5 4 4 3 2 2 2 2 1 2 3 3 3 2 2 2 3 3 3 3 3 3 3 3 4 4 4 4
3 2 3 1 2 4 4 5 6 6 7 6 7 7 7 6 5 5 4 4 3 2 2 2 2 2 3 3 2 2 2 2 3 3 2 3 3 3 3 3 3 3 3 4
4 4 4 3 4 5 5 6 6 6 6 6 6 7 6 6 5 5 5 4 3 2 3 3 3 3 3 3 2 2 3 2 2 2 3 3 3 3 3 3 4 4 4 4
5 5 5 3 5 6 6 6 6 6 6 5 5 6 6 6 6 5 5 4 3 3 3 4 3 3 3 2 2 3 3 2 2 3 3 3 3 3 4 4 5 5 4 3
5 5 6 6 6 7 6 7 7 7 7 6 5 6 6 6 6 5 5 5 4 4 4 4 4 3 3 3 3 3 3 2 2 2 2 2 3 3 5 6 7 8 7 6
6 7 6 6 6 7 6 7 7 7 6 7 6 6 6 6 6 5 5 5 5 5 4 4 4 4 3 3 3 3 4 3 3 3 3 3 3 3 3 4 5 6 7 7
5 5 5 5 6 6 6 6 6 6 6 6 6 6 6 6 6 6 6 5 5 5 4 4 4 4 4 3 3 4 4 4 4 3 3 3 3 3 3 3 3 3 4 6
6 5 5 5 6 6 6 6 6 6 7 7 6 6 6 6 6 7 6 5 5 4 4 4 4 4 4 3 4 4 4 3 3 3 3 3 3 3 3 4 3 3 3 3
7 5 4 5 6 7 6 6 6 7 7 8 7 7 7 7 7 6 6 5 4 5 5 5 5 4 4 4 4 3 4 5 4 3 3 3 3 3 3 3 3 3 3 3
6 6 6 7 7 7 7 7 6 7 7 8 8 8 7 6 6 6 6 5 5 5 5 5 5 4 4 4 4 3 3 3 4 4 3 3 3 3 3 3 3 4 4 4
5 6 6 7 7 7 7 7 7 7 7 7 7 7 6 6 6 7 7 6 5 5 4 4 4 4 4 3 3 3 3 3 3 3 3 3 3 3 3 4 4 4 4 4
7 7 7 6 6 6 6 7 7 7 7 6 7 7 7 6 6 6 6 5 5 5 5 4 6 4 4 4 4 3 3 3 3 3 3 4 4 3 3 4 4 4 4 4
8 7 7 7 6 6 6 6 6 6 6 6 6 6 7 7 6 6 5 5 4 4 5 6 5 4 4 4 4 2 3 3 3 3 3 3 3 3 4 4 4 4 4 4
8 8 8 7 7 6 6 6 6 6 6 6 6 6 7 7 7 6 5 5 5 6 5 6 4 3 3 3 3 2 2 3 3 3 3 3 3 4 4 4 4 4 4 4
8 7 8 7 7 7 6 6 6 6 6 6 6 6 6 7 6 5 4 4 5 7 5 3 3 4 5 4 2 2 2 2 2 3 3 3 3 4 4 4 4 4 4 4
7 7 7 7 7 7 7 6 6 6 6 6 6 6 6 6 5 5 5 5 5 7 5 4 5 6 6 3 2 2 2 3 3 3 3 3 4 4 4 5 4 4 4 4
7 7 7 6 6 6 7 7 7 6 6 6 5 5 5 5 5 4 4 7 9 8 5 6 7 7 6 3 2 3 3 3 3 3 4 4 4 4 4 4 4 4 5 6
7 6 6 6 6 5 6 7 7 6 6 5 6 6 5 4 4 5 5 6 8 8 5 6 7 8 5 3 3 3 3 3 4 3 3 3 4 4 4 4 4 5 5 5
6 6 5 5 5 5 5 5 5 5 5 5 5 5 5 4 5 5 4 5 6 7 5 4 4 5 4 4 4 4 4 4 4 4 4 4 4 4 4 5 6 5 5 5
6 5 5 5 5 5 5 5 5 5 5 5 6 5 5 5 5 5 5 5 5 4 4 4 4 4 4 4 4 4 4 4 4 4 4 4 4 4 5 6 5 5 5 6
Wind_Direction
266 276 265 257 252 232 228 241 252 264 266 282 292 293 294 302 310 303 274 253 227 218 213 197 184 182 181 187 185 181 190 200 208 219 225 228 233 238 243 244 247 250 251 254
266 260 261 266 261 242 240 248 254 266 274 299 300 296 294 294 294 286 283 274 258 248 233 212 204 202 199 204 202 195 199 212 217 222 222 229 238 243 246 247 250 251 251 253
266 283 269 259 253 228 227 239 247 256 273 301 300 295 293 288 282 282 283 285 276 254 237 233 226 221 225 231 230 213 212 216 217 224 227 234 244 247 249 254 256 255 257 256
270 266 246 263 59 205 218 244 245 267 296 306 302 305 306 293 288 289 293 291 282 267 254 248 235 228 233 228 221 217 219 226 227 231 239 242 243 247 253 256 255 258 259 260
244 257 265 256 22 271 242 256 283 274 290 307 330 313 297 1 329 303 299 298 287 276 256 236 226 219 212 222 224 221 227 238 242 237 240 245 246 250 257 259 258 257 259 260
240 256 260 342 354 328 245 250 12 314 304 317 317 290 321 3 335 321 318 315 308 300 268 244 237 218 216 230 234 238 246 254 255 247 241 245 250 254 258 257 259 263 264 264
246 252 266 359 332 303 239 324 355 338 325 313 296 295 314 319 317 314 313 316 313 294 268 257 242 226 234 244 253 264 263 259 257 256 251 247 248 250 250 256 262 262 263 266
239 241 266 16 22 309 326 342 336 329 325 316 307 303 305 311 317 318 319 319 313 298 288 279 248 232 243 253 269 277 266 262 263 263 261 248 242 247 248 248 254 259 262 269
251 275 355 18 343 333 330 318 322 321 322 318 309 307 313 314 316 316 315 312 304 290 290 286 259 242 249 267 277 269 259 263 269 269 262 251 243 243 245 243 246 253 259 268
273 286 310 306 326 328 327 317 313 311 310 310 304 305 310 312 314 315 314 310 300 286 279 283 281 271 265 271 264 252 254 261 264 263 263 257 250 243 243 243 247 250 256 265
270 298 310 309 330 327 327 324 320 318 314 311 306 305 308 309 311 311 309 306 293 279 276 282 287 281 278 267 249 246 254 262 265 261 260 259 258 253 252 250 251 259 258 259
284 304 294 303 326 329 323 323 321 320 322 322 312 301 304 303 303 302 302 303 292 282 281 285 288 285 281 267 248 242 249 254 257 259 261 262 264 272 267 268 269 271 271 273
288 303 296 299 317 326 320 318 320 320 315 314 315 307 303 301 303 302 299 298 291 286 284 284 283 280 278 268 254 245 247 253 253 252 253 258 260 264 277 281 277 275 276 280
321 319 302 311 315 322 320 320 324 325 323 320 318 316 311 306 305 303 301 298 292 287 284 280 275 274 275 266 257 254 254 253 254 251 252 255 258 259 263 270 279 281 280 280
330 321 305 314 321 326 327 328 331 331 331 330 327 322 316 311 308 306 306 303 296 285 280 276 271 273 275 263 255 253 254 252 253 256 257 259 259 256 257 261 267 277 286 282
328 331 326 321 322 325 329 331 328 325 327 325 324 322 319 312 307 306 308 306 293 286 281 275 273 276 274 265 260 254 251 256 261 258 257 258 255 252 254 258 262 265 269 278
330 329 328 323 320 320 321 320 316 314 317 319 319 319 318 316 315 315 317 314 300 290 285 281 282 284 274 265 261 260 254 249 259 262 255 254 254 255 256 257 262 268 270 272
314 310 307 305 305 307 312 316 316 315 315 315 317 318 318 318 317 317 320 320 315 309 304 297 292 290 281 275 264 260 254 252 253 254 253 252 254 254 255 257 259 265 272 276
328 322 319 314 309 305 305 310 314 315 316 317 319 318 317 316 314 314 317 317 315 314 318 314 306 301 293 284 280 256 253 257 256 253 252 254 258 254 252 254 259 263 267 271
332 330 326 322 320 314 310 314 317 318 320 321 321 321 322 322 321 318 316 310 309 306 308 309 307 302 296 285 286 266 261 259 257 257 255 251 252 255 256 258 260 264 266 268
331 331 332 332 330 327 324 321 321 320 323 325 323 322 320 320 320 318 315 315 322 322 317 314 314 308 298 294 287 277 266 261 258 257 256 256 257 259 261 262 264 265 267 269
327 327 328 329 329 328 328 326 323 321 324 326 325 324 324 325 327 323 315 308 314 322 324 316 314 310 313 313 294 283 274 269 266 263 261 261 261 263 265 268 268 268 268 269
324 324 325 326 325 322 324 327 327 325 324 323 323 325 324 321 322 323 324 328 324 327 328 319 319 320 326 327 307 290 277 272 270 267 266 265 264 265 266 268 269 270 271 271
326 326 324 324 324 325 329 332 330 326 321 316 317 320 321 319 321 322 314 319 329 330 327 323 329 331 336 330 312 302 291 282 277 273 271 270 269 268 268 269 271 274 274 275
325 324 325 329 330 327 326 326 327 329 330 326 327 329 325 317 314 318 321 323 327 331 330 331 335 338 338 324 318 309 299 289 285 281 274 273 272 272 272 272 273 275 276 275
325 323 321 320 319 319 321 324 325 326 326 325 328 329 327 325 322 321 321 325 326 329 330 326 327 332 329 323 316 309 302 298 298 293 285 281 278 276 276 276 277 274 274 274
322 322 321 324 326 326 323 321 320 322 323 322 320 322 326 327 326 328 327 326 327 329 329 328 328 327 324 322 317 311 305 303 301 298 294 288 283 280 279 279 279 278 277 275